Вернуться в каталог

PRAETORIAN SDA_520

АктивенPO
NORAD 100078·PAYLOAD·🇺🇸 United States

Запущен Jul 16, 2026 с Vandenberg Space Force Base

Loading…

Ближайшие Пролёты (ближайшие 24 часа)

TLE

СвежийSource: Space-Track

Эпоха: Sep 13, 2026, 22:43 UTC

1 A0078U 26163V   26256.94653503  .00000090  00000-0  66863-4 0  9991
2 A0078  81.4790 255.9022 0017323  58.0543 302.2296 13.86099132  8196

Отслеживайте PRAETORIAN SDA_520 в реальном времени с AllMySat

Download on the App Store